STARLINK AS

Last updated on Sat Jul 15 2023 00:02:05 GMT+0000 (Coordinated Universal Time)

1 57258U 23094AS 23195.75001157 -.01067635 34029-3 -30245-2 0 9998 2 57258 42.9942 276.0408 0024924 199.6280 244.9152 15.91917310 1300

Satellite not in orbit